SXS5R EPKK-LTBJ

Flight info

Callsign SXS5R
Flight time N/A
Altitude 37000
Route BABKO L856 KOPAT/N0455F370 DCT BALAP DCT TPS DCT DODAR DCT EBORO DCT PARAK DCT DONIV DCT NISVA N131 RODIP UN131 DUGLA G80 BERGO
Aircraft B38M/M-SADE2E3GIJ4J7RW/LB1D1

Departure

Time 2026-05-06 09:38
Airport Kraków John Paul II International Airport (EPKK)

Arrival

Time N/A
Airport Adnan Menderes International Airport (LTBJ)
Time Latitude Longitude Altitude Speed Heading
2026-05-06 09:13 50.07474 19.80078 802 ft 0 kts 167°
2026-05-06 09:31 50.07475 19.80078 803 ft 0 kts 167°
2026-05-06 09:31 50.07484 19.80075 803 ft 2 kts 167°
2026-05-06 09:31 50.07496 19.80071 803 ft 0 kts 167°
2026-05-06 09:31 50.07512 19.80057 803 ft 2 kts 125°
2026-05-06 09:32 50.07518 19.80031 802 ft 2 kts 87°
2026-05-06 09:32 50.07516 19.80019 802 ft 1 kts 74°
2026-05-06 09:32 50.07516 19.80015 802 ft 0 kts 77°
2026-05-06 09:34 50.07516 19.80016 802 ft 0 kts 77°
2026-05-06 09:34 50.07518 19.80030 802 ft 3 kts 77°
2026-05-06 09:34 50.07526 19.80083 802 ft 6 kts 78°
2026-05-06 09:34 50.07538 19.80166 802 ft 8 kts 78°
2026-05-06 09:35 50.07549 19.80253 802 ft 7 kts 79°
2026-05-06 09:35 50.07560 19.80336 802 ft 7 kts 78°
2026-05-06 09:35 50.07579 19.80407 802 ft 6 kts 36°
2026-05-06 09:35 50.07628 19.80408 802 ft 6 kts 348°
2026-05-06 09:36 50.07671 19.80394 802 ft 6 kts 348°
2026-05-06 09:36 50.07712 19.80381 802 ft 5 kts 348°
2026-05-06 09:36 50.07755 19.80365 802 ft 9 kts 346°
2026-05-06 09:36 50.07848 19.80332 802 ft 17 kts 348°
2026-05-06 09:37 50.07996 19.80289 802 ft 12 kts 351°
2026-05-06 09:37 50.08011 19.80194 802 ft 5 kts 256°
2026-05-06 09:37 50.08010 19.80186 803 ft 7 kts 255°
2026-05-06 09:37 50.07916 19.79522 803 ft 100 kts 258°
2026-05-06 09:38 50.07688 19.77879 824 ft 168 kts 254°
2026-05-06 09:38 50.07435 19.75794 1773 ft 168 kts 258°
2026-05-06 09:38 50.07154 19.73820 2681 ft 171 kts 255°
2026-05-06 09:38 50.06834 19.71719 3348 ft 182 kts 256°
2026-05-06 09:39 50.06506 19.69467 3980 ft 194 kts 257°
2026-05-06 09:39 50.05944 19.67120 4590 ft 213 kts 237°
2026-05-06 09:39 50.04613 19.65353 5249 ft 234 kts 205°
2026-05-06 09:39 50.02727 19.64768 5985 ft 254 kts 181°
2026-05-06 09:40 50.00639 19.65292 6714 ft 273 kts 170°
2026-05-06 09:40 49.98499 19.66135 7667 ft 278 kts 169°
2026-05-06 09:40 49.94151 19.67698 9648 ft 283 kts 171°
2026-05-06 09:41 49.91938 19.68437 10426 ft 293 kts 171°
2026-05-06 09:41 49.89692 19.69135 11016 ft 306 kts 175°
2026-05-06 09:41 49.87258 19.69166 11552 ft 317 kts 195°
2026-05-06 09:41 49.84909 19.67670 12102 ft 329 kts 211°
2026-05-06 09:42 49.82681 19.65637 12608 ft 344 kts 212°
2026-05-06 09:42 49.80332 19.63469 13074 ft 359 kts 212°
2026-05-06 09:42 49.77821 19.61226 13482 ft 375 kts 211°
2026-05-06 09:42 49.75197 19.58944 14123 ft 383 kts 210°
2026-05-06 09:43 49.72609 19.56723 14864 ft 387 kts 210°
2026-05-06 09:43 49.69952 19.54454 15598 ft 392 kts 210°
2026-05-06 09:43 49.67267 19.52162 16401 ft 394 kts 211°
2026-05-06 09:43 49.64549 19.49810 17071 ft 398 kts 212°
2026-05-06 09:44 49.62136 19.47451 17693 ft 402 kts 217°
2026-05-06 09:44 49.59942 19.44780 18278 ft 405 kts 222°
2026-05-06 09:44 49.57870 19.41782 18910 ft 408 kts 226°
2026-05-06 09:44 49.55740 19.38400 19508 ft 412 kts 227°
2026-05-06 09:45 49.53538 19.34767 20249 ft 413 kts 227°
2026-05-06 09:45 49.51407 19.31223 20769 ft 419 kts 227°
2026-05-06 09:45 49.49379 19.27863 21345 ft 422 kts 227°
2026-05-06 09:45 49.47140 19.24176 21977 ft 424 kts 227°
2026-05-06 09:46 49.45091 19.20819 22456 ft 429 kts 227°
2026-05-06 09:46 49.42909 19.17261 23080 ft 430 kts 227°
2026-05-06 09:46 49.40530 19.13395 23604 ft 434 kts 227°
2026-05-06 09:46 49.38130 19.09508 24235 ft 436 kts 227°
2026-05-06 09:47 49.35809 19.05758 24772 ft 439 kts 227°
2026-05-06 09:47 49.33375 19.01833 25348 ft 442 kts 227°
2026-05-06 09:47 49.30920 18.97881 25887 ft 445 kts 227°
2026-05-06 09:47 49.28457 18.93924 26357 ft 448 kts 227°
2026-05-06 09:48 49.25983 18.89956 26894 ft 450 kts 227°
2026-05-06 09:48 49.23504 18.85989 27674 ft 446 kts 227°
2026-05-06 09:48 49.21048 18.82068 28524 ft 440 kts 227°
2026-05-06 09:48 49.18510 18.78311 29316 ft 436 kts 222°
2026-05-06 09:49 49.15709 18.75172 29950 ft 435 kts 212°
2026-05-06 09:49 49.12586 18.72811 30417 ft 438 kts 204°
2026-05-06 09:49 49.09290 18.71128 30892 ft 441 kts 197°
2026-05-06 09:49 49.05833 18.70101 31418 ft 443 kts 190°
2026-05-06 09:50 49.02298 18.69767 31999 ft 443 kts 183°
2026-05-06 09:50 48.98925 18.70099 32489 ft 445 kts 176°
2026-05-06 09:50 48.95433 18.71116 32934 ft 449 kts 169°
2026-05-06 09:50 48.92000 18.72825 33374 ft 452 kts 161°
2026-05-06 09:51 48.88719 18.75172 33813 ft 455 kts 155°
2026-05-06 09:51 48.85516 18.77890 34311 ft 454 kts 154°
2026-05-06 09:51 48.82294 18.80583 34766 ft 452 kts 156°
2026-05-06 09:51 48.79065 18.83058 35146 ft 450 kts 158°
2026-05-06 09:52 48.75783 18.85337 35510 ft 448 kts 160°
2026-05-06 09:52 48.72507 18.87440 35838 ft 447 kts 162°
2026-05-06 09:52 48.69183 18.89459 36138 ft 447 kts 162°
2026-05-06 09:52 48.65830 18.91434 36491 ft 445 kts 163°
2026-05-06 09:53 48.62676 18.93261 36842 ft 444 kts 163°
2026-05-06 09:53 48.59477 18.95101 36908 ft 447 kts 163°
2026-05-06 09:53 48.52823 18.98912 36901 ft 444 kts 163°
2026-05-06 09:54 48.46119 19.02742 36892 ft 445 kts 163°
2026-05-06 09:54 48.39885 19.06294 36891 ft 446 kts 163°
2026-05-06 09:55 48.34112 19.09573 36896 ft 445 kts 163°
2026-05-06 09:55 48.28001 19.13036 36905 ft 446 kts 163°
2026-05-06 09:56 48.21310 19.16818 36908 ft 446 kts 163°
2026-05-06 09:56 48.14909 19.20422 36909 ft 447 kts 163°
2026-05-06 09:57 48.08643 19.23937 36909 ft 447 kts 164°
2026-05-06 09:57 48.02473 19.26780 36905 ft 443 kts 170°
2026-05-06 09:58 47.96198 19.28902 36904 ft 442 kts 172°
2026-05-06 09:58 47.90005 19.30900 36900 ft 443 kts 172°
2026-05-06 09:59 47.83650 19.33000 36890 ft 444 kts 171°
2026-05-06 09:59 47.77394 19.35104 36901 ft 445 kts 171°
2026-05-06 10:00 47.71185 19.37205 36902 ft 445 kts 171°
2026-05-06 10:00 47.64943 19.39324 36914 ft 445 kts 171°
2026-05-06 10:01 47.58589 19.41478 36917 ft 445 kts 171°
2026-05-06 10:01 47.52279 19.43612 36917 ft 446 kts 171°
2026-05-06 10:02 47.45976 19.45687 36916 ft 445 kts 172°
2026-05-06 10:02 47.39682 19.47534 36921 ft 445 kts 173°
2026-05-06 10:03 47.33360 19.49329 36921 ft 446 kts 173°
2026-05-06 10:03 47.27029 19.51140 36921 ft 447 kts 173°
2026-05-06 10:04 47.20716 19.53177 36925 ft 450 kts 168°
2026-05-06 10:04 47.14544 19.56207 36935 ft 455 kts 164°
2026-05-06 10:05 47.08447 19.59604 36932 ft 456 kts 163°
2026-05-06 10:05 47.02452 19.62954 36933 ft 455 kts 163°
2026-05-06 10:06 46.96236 19.66367 36938 ft 456 kts 165°
2026-05-06 10:06 46.90076 19.69708 36945 ft 456 kts 165°
2026-05-06 10:07 46.83988 19.72987 37348 ft 457 kts 165°
2026-05-06 10:07 46.81030 19.74581 37934 ft 452 kts 165°
2026-05-06 10:07 46.78089 19.76168 38312 ft 451 kts 165°
2026-05-06 10:08 46.75129 19.77766 38613 ft 451 kts 165°
2026-05-06 10:08 46.72187 19.79356 38878 ft 451 kts 165°
2026-05-06 10:08 46.66236 19.82575 38941 ft 453 kts 164°
2026-05-06 10:09 46.60269 19.85810 38941 ft 451 kts 165°
2026-05-06 10:09 46.54165 19.89112 38940 ft 452 kts 165°
2026-05-06 10:10 46.48167 19.92351 38945 ft 452 kts 165°
2026-05-06 10:10 46.42210 19.95564 38942 ft 452 kts 164°
2026-05-06 10:11 46.39261 19.97150 39104 ft 454 kts 165°
2026-05-06 10:11 46.36287 19.98746 38978 ft 456 kts 164°
2026-05-06 10:11 46.30322 20.01952 38950 ft 453 kts 165°
2026-05-06 10:12 46.24343 20.05154 38950 ft 454 kts 164°
2026-05-06 10:12 46.18424 20.08323 38951 ft 454 kts 164°
2026-05-06 10:13 46.12600 20.12052 38952 ft 458 kts 157°
2026-05-06 10:13 46.06965 20.16460 38955 ft 461 kts 155°
2026-05-06 10:14 46.01371 20.20956 38953 ft 461 kts 155°
2026-05-06 10:14 45.95747 20.25407 38955 ft 461 kts 155°
2026-05-06 10:15 45.90091 20.29826 38958 ft 463 kts 155°
2026-05-06 10:15 45.84390 20.34249 38961 ft 463 kts 155°
2026-05-06 10:16 45.78725 20.38624 38961 ft 463 kts 155°
2026-05-06 10:16 45.73006 20.43024 38963 ft 463 kts 155°
2026-05-06 10:17 45.67321 20.47386 38964 ft 464 kts 155°
2026-05-06 10:17 45.61620 20.51749 38965 ft 464 kts 155°
2026-05-06 10:18 45.55765 20.56220 38968 ft 465 kts 155°
2026-05-06 10:18 45.49981 20.60628 38966 ft 466 kts 155°
2026-05-06 10:19 45.44207 20.65021 38967 ft 465 kts 156°
2026-05-06 10:19 45.38324 20.69480 38970 ft 465 kts 156°
2026-05-06 10:20 45.32369 20.73985 38971 ft 467 kts 156°
2026-05-06 10:20 45.26354 20.78527 38972 ft 466 kts 156°
2026-05-06 10:21 45.20266 20.83108 38976 ft 468 kts 155°
2026-05-06 10:21 45.14001 20.87813 38978 ft 467 kts 156°
2026-05-06 10:22 45.07686 20.92541 38822 ft 468 kts 155°
2026-05-06 10:22 45.04485 20.94937 38990 ft 469 kts 156°
2026-05-06 10:22 45.01444 20.97208 38986 ft 471 kts 156°
2026-05-06 10:23 44.95356 21.01750 38983 ft 469 kts 156°
2026-05-06 10:23 44.89206 21.06325 38980 ft 470 kts 155°
2026-05-06 10:24 44.82737 21.11125 38973 ft 471 kts 155°
2026-05-06 10:24 44.76471 21.15762 39101 ft 472 kts 155°
2026-05-06 10:25 44.73362 21.18191 38979 ft 472 kts 152°
2026-05-06 10:25 44.70318 21.20887 38974 ft 471 kts 149°
2026-05-06 10:25 44.64295 21.26690 38989 ft 473 kts 147°
2026-05-06 10:26 44.58307 21.32518 38870 ft 472 kts 148°
2026-05-06 10:26 44.52155 21.38402 39010 ft 475 kts 148°
2026-05-06 10:27 44.45847 21.44360 39013 ft 474 kts 148°
2026-05-06 10:27 44.42693 21.47330 39118 ft 475 kts 148°
2026-05-06 10:27 44.39590 21.50238 39014 ft 474 kts 148°
2026-05-06 10:28 44.33375 21.56045 39015 ft 472 kts 148°
2026-05-06 10:28 44.27124 21.61865 39017 ft 475 kts 148°
2026-05-06 10:29 44.20857 21.67698 39020 ft 472 kts 148°
2026-05-06 10:29 44.14604 21.73510 39029 ft 473 kts 149°
2026-05-06 10:30 44.08381 21.79276 39041 ft 473 kts 148°
2026-05-06 10:30 44.02135 21.85048 39046 ft 473 kts 148°
2026-05-06 10:31 43.95796 21.90887 39038 ft 474 kts 148°
2026-05-06 10:31 43.89484 21.96689 39036 ft 475 kts 148°
2026-05-06 10:32 43.83091 22.02545 39034 ft 475 kts 148°
2026-05-06 10:32 43.76728 22.08357 39032 ft 476 kts 148°
2026-05-06 10:33 43.70307 22.14208 39032 ft 477 kts 148°
2026-05-06 10:33 43.63974 22.19961 39034 ft 477 kts 148°
2026-05-06 10:34 43.57686 22.25662 39036 ft 476 kts 148°
2026-05-06 10:34 43.51251 22.31484 39047 ft 477 kts 148°
2026-05-06 10:35 43.44743 22.37359 39056 ft 478 kts 148°
2026-05-06 10:35 43.38417 22.43050 39060 ft 479 kts 148°
2026-05-06 10:36 43.32013 22.48794 39057 ft 478 kts 148°
2026-05-06 10:36 43.28826 22.51649 38955 ft 477 kts 148°
2026-05-06 10:36 43.25588 22.54547 39059 ft 479 kts 148°
2026-05-06 10:37 43.19004 22.60426 39063 ft 483 kts 148°
2026-05-06 10:37 43.12417 22.66299 39060 ft 481 kts 148°
2026-05-06 10:38 43.05893 22.72106 39070 ft 482 kts 148°
2026-05-06 10:38 42.99453 22.77837 39062 ft 483 kts 147°
2026-05-06 10:39 42.93481 22.84297 39068 ft 484 kts 139°
2026-05-06 10:39 42.88240 22.90978 39072 ft 485 kts 136°
2026-05-06 10:40 42.83069 22.97751 39079 ft 484 kts 136°
2026-05-06 10:40 42.77945 23.04375 39083 ft 485 kts 137°
2026-05-06 10:41 42.72718 23.11055 39074 ft 485 kts 137°
2026-05-06 10:41 42.67072 23.18221 39084 ft 486 kts 137°
2026-05-06 10:42 42.61510 23.25253 39089 ft 487 kts 136°
2026-05-06 10:42 42.56419 23.31666 39090 ft 486 kts 137°
2026-05-06 10:43 42.51058 23.38322 39088 ft 487 kts 137°
2026-05-06 10:44 42.42126 23.49334 39088 ft 488 kts 137°
2026-05-06 10:44 42.36321 23.56489 39095 ft 489 kts 137°
2026-05-06 10:45 42.30538 23.63612 39101 ft 489 kts 137°
2026-05-06 10:45 42.24737 23.70743 39109 ft 488 kts 137°
2026-05-06 10:46 42.19026 23.77734 39110 ft 490 kts 137°
2026-05-06 10:46 42.13251 23.84791 39110 ft 489 kts 137°
2026-05-06 10:47 42.07542 23.91750 39102 ft 489 kts 137°
2026-05-06 10:47 42.01729 23.98814 39109 ft 492 kts 137°
2026-05-06 10:48 41.95862 24.05930 39110 ft 492 kts 137°
2026-05-06 10:48 41.90004 24.13026 39109 ft 491 kts 137°
2026-05-06 10:49 41.84184 24.20053 39112 ft 490 kts 137°
2026-05-06 10:49 41.78401 24.27023 39120 ft 491 kts 137°
2026-05-06 10:50 41.72512 24.34088 39116 ft 492 kts 137°
2026-05-06 10:50 41.66589 24.41164 39110 ft 490 kts 137°
2026-05-06 10:51 41.60741 24.48145 39111 ft 491 kts 137°
2026-05-06 10:51 41.54916 24.55094 39106 ft 492 kts 137°
2026-05-06 10:52 41.49062 24.62060 39101 ft 491 kts 137°
2026-05-06 10:52 41.43282 24.68917 39091 ft 491 kts 137°
2026-05-06 10:53 41.37590 24.75652 39079 ft 491 kts 138°
2026-05-06 10:53 41.31889 24.82367 39073 ft 492 kts 138°
2026-05-06 10:54 41.26050 24.89228 39062 ft 492 kts 137°
2026-05-06 10:54 41.20294 24.95981 39060 ft 492 kts 137°
2026-05-06 10:55 41.14787 25.02426 39049 ft 491 kts 137°
2026-05-06 10:55 41.09370 25.08752 39060 ft 493 kts 138°
2026-05-06 10:56 41.04024 25.14984 39073 ft 492 kts 137°
2026-05-06 10:56 40.98809 25.21044 39066 ft 492 kts 137°
2026-05-06 10:57 40.93692 25.26980 39071 ft 491 kts 137°
2026-05-06 10:57 40.88504 25.32993 39057 ft 493 kts 137°
2026-05-06 10:58 40.83355 25.38947 39051 ft 492 kts 137°
2026-05-06 10:58 40.78281 25.45084 39048 ft 492 kts 132°
2026-05-06 10:59 40.73683 25.51786 39050 ft 491 kts 128°
2026-05-06 10:59 40.68729 25.59516 39060 ft 490 kts 128°
2026-05-06 11:00 40.63698 25.67353 39060 ft 492 kts 129°
2026-05-06 11:00 40.59051 25.74507 39056 ft 491 kts 129°
2026-05-06 11:01 40.54561 25.81356 39057 ft 492 kts 129°
2026-05-06 11:01 40.50069 25.88180 39063 ft 492 kts 129°
2026-05-06 11:02 40.45560 25.94973 39064 ft 491 kts 129°
2026-05-06 11:02 40.40962 26.01839 39061 ft 493 kts 129°
2026-05-06 11:03 40.36368 26.08682 39061 ft 492 kts 129°
2026-05-06 11:03 40.31807 26.15455 39074 ft 493 kts 129°
2026-05-06 11:04 40.27284 26.22162 39060 ft 492 kts 130°
2026-05-06 11:04 40.22636 26.29050 39063 ft 492 kts 129°
2026-05-06 11:05 40.17976 26.35931 39063 ft 491 kts 129°
2026-05-06 11:05 40.12777 26.43588 39072 ft 492 kts 130°
2026-05-06 11:06 40.07302 26.50922 39067 ft 492 kts 134°
2026-05-06 11:06 40.01934 26.57651 39062 ft 493 kts 134°
2026-05-06 11:07 39.96380 26.64620 39071 ft 493 kts 134°
2026-05-06 11:07 39.90976 26.71457 38755 ft 496 kts 135°
2026-05-06 11:07 39.88191 26.74990 38233 ft 494 kts 135°
2026-05-06 11:08 39.85439 26.78487 37592 ft 491 kts 135°
2026-05-06 11:08 39.82838 26.81784 37005 ft 490 kts 135°
2026-05-06 11:08 39.80062 26.85254 36387 ft 490 kts 135°
2026-05-06 11:08 39.77584 26.88316 35943 ft 491 kts 135°
2026-05-06 11:09 39.75051 26.91437 35522 ft 496 kts 135°
2026-05-06 11:09 39.72507 26.94566 35035 ft 498 kts 135°
2026-05-06 11:09 39.69937 26.97733 34471 ft 499 kts 135°
2026-05-06 11:09 39.67367 27.00899 33832 ft 499 kts 135°
2026-05-06 11:10 39.64774 27.04090 33164 ft 498 kts 135°
2026-05-06 11:10 39.61936 27.07585 32434 ft 497 kts 135°
2026-05-06 11:10 39.59089 27.11090 31703 ft 497 kts 135°
2026-05-06 11:10 39.56144 27.14617 30953 ft 499 kts 138°
2026-05-06 11:11 39.53024 27.17797 30216 ft 502 kts 144°
2026-05-06 11:11 39.49592 27.20506 29440 ft 503 kts 153°
2026-05-06 11:11 39.45882 27.22457 28671 ft 502 kts 164°
2026-05-06 11:11 39.42068 27.23534 27886 ft 502 kts 175°
2026-05-06 11:12 39.38184 27.23765 27083 ft 500 kts 185°
2026-05-06 11:12 39.34196 27.23108 26259 ft 497 kts 196°
2026-05-06 11:12 39.30430 27.21784 25460 ft 495 kts 201°
2026-05-06 11:12 39.26799 27.20295 24675 ft 493 kts 201°
2026-05-06 11:13 39.23478 27.18999 23939 ft 488 kts 199°
2026-05-06 11:13 39.20208 27.17875 23225 ft 483 kts 197°
2026-05-06 11:13 39.16920 27.16913 22527 ft 477 kts 194°
2026-05-06 11:13 39.13624 27.16083 21823 ft 471 kts 193°
2026-05-06 11:14 39.10391 27.15359 21171 ft 464 kts 192°
2026-05-06 11:14 39.07198 27.14701 20577 ft 457 kts 191°
2026-05-06 11:14 39.04084 27.14099 19988 ft 449 kts 191°
2026-05-06 11:14 39.00978 27.13603 19396 ft 443 kts 187°
2026-05-06 11:15 38.97916 27.13479 18817 ft 438 kts 180°
2026-05-06 11:15 38.94911 27.13673 18243 ft 432 kts 176°
2026-05-06 11:15 38.91952 27.14028 17676 ft 426 kts 175°
2026-05-06 11:15 38.88994 27.14454 17168 ft 418 kts 174°
2026-05-06 11:16 38.86073 27.14887 16656 ft 411 kts 174°
2026-05-06 11:16 38.83233 27.15293 16149 ft 403 kts 174°
2026-05-06 11:16 38.80391 27.15681 15640 ft 397 kts 175°
2026-05-06 11:16 38.77613 27.16046 15142 ft 391 kts 175°
2026-05-06 11:17 38.74886 27.16393 14633 ft 385 kts 175°
2026-05-06 11:17 38.71857 27.16771 14065 ft 379 kts 175°
2026-05-06 11:17 38.69056 27.17118 13527 ft 374 kts 175°
2026-05-06 11:17 38.66131 27.17479 12976 ft 369 kts 175°
2026-05-06 11:18 38.63320 27.17826 12424 ft 365 kts 175°
2026-05-06 11:18 38.60688 27.18151 11904 ft 361 kts 174°
2026-05-06 11:18 38.58122 27.18467 11405 ft 358 kts 174°
2026-05-06 11:18 38.55603 27.18792 11089 ft 348 kts 172°
2026-05-06 11:19 38.53257 27.19299 10798 ft 340 kts 168°
2026-05-06 11:19 38.50935 27.19960 10492 ft 333 kts 166°